Faribault, MN

12:31 AM CDT on July 21, 2017 (GMT -0500)
Faribault Municipal

Weather History for KFBL - June, 2014

Change the Weather History Date:

Monday, June 16, 2014

  Actual Average Record
Temperature  
Mean Temperature 73 °F -  
Max Temperature 84 °F 76 °F 90 °F (1959)
Min Temperature 62 °F 53 °F 36 °F (1980)
Cooling Degree Days 8    
Growing Degree Days 23 (Base 50)    
Moisture  
Dew Point 57 °F    
Average Humidity 63    
Maximum Humidity 88    
Minimum Humidity 37    
Precipitation  
Precipitation 0.72 in - - ()
Sea Level Pressure  
Sea Level Pressure 29.87 in    
Wind  
Wind Speed - (North)    
Max Wind Speed -    
Max Gust Speed -    
Visibility 10 miles    
Events Rain , Thunderstorm    
Averages and records for this station are not official NWS values.
T = Trace of Precipitation, MM = Missing Value Source: NWS Daily Summary

Daily Weather History Graph

Daily Weather History Graph

Search for Another Location

Airport or City:

Trip Planner

Search our weather history database for the weather conditions in past years. The results will help you decide how hot, cold, wet, or windy it might be!

Date:

Astronomy

Jun. 16, 2014 Rise Set
Actual Time 5:28 AM CDT 8:59 PM CDT
Civil Twilight 4:51 AM CDT 9:36 PM CDT
Nautical Twilight 4:03 AM CDT 10:24 PM CDT
Astronomical Twilight 3:01 AM CDT 11:26 PM CDT
Moon 11:42 PM CDT (6/16) 9:41 AM CDT (6/16)
Length of Visible Light 16h 44m
Length of Day
15h 30m
Waning Gibbous, 83% of the Moon is Illuminated
Jun 16
Waning Gibbous
Jun 19
Last Quarter
Jun 27
New
Jul 5
First Quarter
Jul 12
Full

Hourly Weather History & Observations

Time (CDT) Temp. Heat Index Dew Point Humidity Pressure Visibility Wind Dir Wind Speed Gust Speed Precip Events Conditions
12:14 AM 69.8 °F - 51.8 °F 53% 29.88 in 10.0 mi North - - N/A   Clear
12:34 AM 68.0 °F - 51.8 °F 56% 29.88 in 10.0 mi North - - N/A   Clear
12:53 AM 66.2 °F - 53.6 °F 64% 29.88 in 10.0 mi North - - N/A   Clear
1:14 AM 64.4 °F - 53.6 °F 68% 29.89 in 10.0 mi North - - N/A   Clear
1:34 AM 64.4 °F - 53.6 °F 68% 29.89 in 10.0 mi North - - N/A   Clear
1:53 AM 62.6 °F - 53.6 °F 72% 29.89 in 10.0 mi North - - N/A   Clear
2:14 AM 64.4 °F - 53.6 °F 68% 29.89 in 10.0 mi North - - N/A   Clear
2:34 AM 64.4 °F - 53.6 °F 68% 29.89 in 10.0 mi North - - N/A   Clear
2:53 AM 62.6 °F - 53.6 °F 72% 29.89 in 10.0 mi North - - N/A   Clear
3:14 AM 62.6 °F - 53.6 °F 72% 29.90 in 10.0 mi North - - N/A   Clear
3:34 AM 62.6 °F - 53.6 °F 72% 29.90 in 10.0 mi North - - N/A   Clear
3:53 AM 62.6 °F - 53.6 °F 72% 29.90 in 10.0 mi North - - N/A   Clear
4:14 AM 62.6 °F - 51.8 °F 68% 29.90 in 10.0 mi North - - N/A   Clear
4:34 AM 62.6 °F - 51.8 °F 68% 29.91 in 10.0 mi North - - N/A   Clear
4:54 AM 62.6 °F - 51.8 °F 68% 29.91 in 10.0 mi North - - N/A   Clear
5:14 AM 62.6 °F - 53.6 °F 72% 29.92 in 10.0 mi North - - N/A   Clear
5:34 AM 62.6 °F - 53.6 °F 72% 29.92 in 10.0 mi North - - N/A   Clear
5:54 AM 62.6 °F - 51.8 °F 68% 29.92 in 10.0 mi North - - N/A   Clear
6:14 AM 64.4 °F - 51.8 °F 64% 29.92 in 10.0 mi North - - N/A   Clear
6:33 AM 64.4 °F - 51.8 °F 64% 29.92 in 10.0 mi North - - N/A   Clear
6:54 AM 66.2 °F - 53.6 °F 64% 29.93 in 10.0 mi North - - N/A   Clear
7:14 AM 68.0 °F - 53.6 °F 60% 29.92 in 10.0 mi North - - N/A   Clear
7:33 AM 69.8 °F - 53.6 °F 56% 29.93 in 10.0 mi North - - N/A   Clear
7:54 AM 71.6 °F - 53.6 °F 53% 29.93 in 10.0 mi North - - N/A   Clear
8:14 AM 71.6 °F - 55.4 °F 57% 29.93 in 10.0 mi North - - N/A   Clear
8:33 AM 73.4 °F - 55.4 °F 53% 29.93 in 10.0 mi North - - N/A   Clear
8:54 AM 75.2 °F - 55.4 °F 50% 29.93 in 10.0 mi North - - N/A   Clear
9:14 AM 75.2 °F - 57.2 °F 53% 29.92 in 10.0 mi North - - N/A   Clear
9:33 AM 77.0 °F - 57.2 °F 50% 29.90 in 10.0 mi North - - N/A   Clear
9:54 AM 78.8 °F - 57.2 °F 47% 29.90 in 10.0 mi North - - N/A   Clear
10:34 AM 80.6 °F 81.1 °F 59.0 °F 48% 29.91 in 10.0 mi North - - N/A   Clear
10:54 AM 82.4 °F 82.5 °F 59.0 °F 45% 29.90 in 10.0 mi North - - N/A   Clear
11:14 AM 82.4 °F 82.0 °F 57.2 °F 42% 29.90 in 10.0 mi North - - N/A   Clear
11:34 AM 82.4 °F 82.0 °F 57.2 °F 42% 29.90 in 10.0 mi North - - N/A   Clear
11:54 AM 82.4 °F 82.5 °F 59.0 °F 45% 29.89 in 10.0 mi North - - N/A   Clear
12:14 PM 82.4 °F 82.0 °F 57.2 °F 42% 29.89 in 10.0 mi North - - N/A   Clear
12:34 PM 82.4 °F 82.5 °F 59.0 °F 45% 29.89 in 10.0 mi North - - N/A   Clear
12:54 PM 82.4 °F 81.7 °F 55.4 °F 39% 29.90 in 10.0 mi North - - N/A   Clear
1:14 PM 82.4 °F 81.7 °F 55.4 °F 39% 29.89 in 10.0 mi North - - N/A   Clear
1:34 PM 82.4 °F 81.7 °F 55.4 °F 39% 29.87 in 10.0 mi North - - N/A   Clear
1:54 PM 82.4 °F 81.7 °F 55.4 °F 39% 29.84 in 10.0 mi North - - N/A   Clear
2:14 PM 84.2 °F 83.0 °F 55.4 °F 37% 29.83 in 10.0 mi North - - N/A   Clear
2:34 PM 84.2 °F 83.0 °F 55.4 °F 37% 29.83 in 10.0 mi North - - N/A   Clear
2:54 PM 82.4 °F 81.7 °F 55.4 °F 39% 29.83 in 10.0 mi North - - N/A   Scattered Clouds
3:34 PM 80.6 °F 80.8 °F 57.2 °F 45% 29.84 in 10.0 mi North - - N/A   Clear
3:54 PM 80.6 °F 81.5 °F 60.8 °F 51% 29.81 in 10.0 mi North - - N/A Rain Light Rain
4:14 PM 78.8 °F - 62.6 °F 57% 29.82 in 10.0 mi North - - N/A Rain Light Rain
4:34 PM 77.0 °F - 62.6 °F 61% 29.80 in 10.0 mi North - - N/A Rain Light Rain
4:54 PM 75.2 °F - 62.6 °F 65% 29.83 in 7.0 mi North - - N/A Rain , Thunderstorm Rain
5:14 PM 73.4 °F - 64.4 °F 73% 29.82 in 10.0 mi North - - 0.01 in Rain , Thunderstorm Thunderstorms and Rain
5:34 PM 73.4 °F - 64.4 °F 73% 29.86 in 10.0 mi North - - 0.02 in Rain , Thunderstorm Light Thunderstorms and Rain
5:54 PM 69.8 °F - 62.6 °F 78% 29.83 in 10.0 mi North - - 0.02 in Rain , Thunderstorm Light Thunderstorms and Rain
6:14 PM 69.8 °F - 62.6 °F 78% 29.86 in 10.0 mi North - - 0.03 in Rain , Thunderstorm Light Thunderstorms and Rain
6:34 PM 69.8 °F - 62.6 °F 78% 29.81 in 10.0 mi North - - 0.05 in Rain , Thunderstorm Thunderstorms and Rain
6:54 PM 68.0 °F - 62.6 °F 83% 29.88 in 10.0 mi North - - 0.14 in Rain , Thunderstorm Heavy Thunderstorms and Rain
7:14 PM 66.2 °F - 60.8 °F 83% 29.92 in 10.0 mi North - - 0.17 in Rain , Thunderstorm Heavy Thunderstorms and Rain
7:34 PM 66.2 °F - 62.6 °F 88% 29.93 in 10.0 mi North - - 0.23 in Rain , Thunderstorm Thunderstorms and Rain
7:54 PM 66.2 °F - 60.8 °F 83% 29.92 in 7.0 mi North - - 0.28 in Rain , Thunderstorm Rain
8:13 PM 66.2 °F - 60.8 °F 83% 29.91 in 7.0 mi North - - 0.06 in Rain Rain
8:34 PM 66.2 °F - 60.8 °F 83% 29.87 in 10.0 mi North - - 0.11 in Rain Rain
8:54 PM 64.4 °F - 59.0 °F 83% 29.86 in 10.0 mi North - - 0.18 in Rain , Thunderstorm Thunderstorms and Rain
9:13 PM 64.4 °F - 59.0 °F 83% 29.80 in 10.0 mi North - - 0.03 in Rain , Thunderstorm Light Thunderstorms and Rain
9:34 PM 64.4 °F - 57.2 °F 77% 29.70 in 10.0 mi North - - 0.04 in Rain , Thunderstorm Light Thunderstorms and Rain
9:54 PM 64.4 °F - 57.2 °F 77% 29.72 in 10.0 mi North - - 0.04 in Thunderstorm Scattered Clouds
10:14 PM 64.4 °F - 57.2 °F 77% 29.75 in 10.0 mi North - - N/A   Scattered Clouds
10:33 PM 64.4 °F - 57.2 °F 77% 29.77 in 10.0 mi North - - 0.01 in Rain , Thunderstorm Thunderstorms and Rain
10:54 PM 64.4 °F - 57.2 °F 77% 29.75 in 10.0 mi North - - 0.03 in Rain , Thunderstorm Light Thunderstorms and Rain
11:14 PM 64.4 °F - 57.2 °F 77% 29.72 in 10.0 mi North - - 0.02 in Rain Light Rain
11:34 PM 64.4 °F - 57.2 °F 77% 29.67 in 10.0 mi North - - 0.03 in Rain Light Rain
11:54 PM 64.4 °F - 57.2 °F 77% 29.67 in 10.0 mi North - - 0.03 in   Mostly Cloudy